This is the latest recevied weather packets stored in our database for station/object DL7AND-1. If no packets are shown the sender has not sent any weather packets the latest 10 day(s).
| Time | Temp. | Humidity | Pressure | Rain* | Wind** | Luminosity | Snow |
|---|---|---|---|---|---|---|---|
| 1777636011 | 21.67° C | - | 1018.6 hPa | 0 mm | - | - | - |
| 1777634186 | 21.67° C | - | 1018.7 hPa | 0 mm | - | - | - |
| 1777630298 | 21.11° C | - | 1019.4 hPa | 0 mm | - | - | - |
| 1777627611 | 20.56° C | - | 1019.7 hPa | 0 mm | - | - | - |
| 1777626987 | 20.56° C | - | 1019.7 hPa | 0 mm | - | - | - |
| 1777621899 | 18.33° C | - | 1020 hPa | 0 mm | - | - | - |
| 1777620747 | 17.78° C | - | 1020 hPa | 0 mm | - | - | - |
| 1777613498 | 20° C | - | 1019.6 hPa | 0 mm | - | - | - |
| 1777608698 | 12.22° C | - | 1019.6 hPa | 0 mm | - | - | - |
| 1777603899 | 12.22° C | - | 1019.4 hPa | 0 mm | - | - | - |
| 1777601211 | 12.78° C | - | 1019.5 hPa | 0 mm | - | - | - |
| 1777600299 | 12.78° C | - | 1019.4 hPa | 0 mm | - | - | - |
| 1777594922 | 13.89° C | - | 1019.2 hPa | 0 mm | - | - | - |
| 1777593386 | 13.89° C | - | 1019.2 hPa | 0 mm | - | - | - |
| 1777590410 | 13.89° C | - | 1019.4 hPa | 0 mm | - | - | - |
| 1777589498 | 14.44° C | - | 1019.4 hPa | 0 mm | - | - | - |
| 1777588386 | 14.44° C | - | 1019.5 hPa | 0 mm | - | - | - |
| 1777585610 | 15° C | - | 1019.6 hPa | 0 mm | - | - | - |
| 1777578408 | 16.67° C | - | 1019.4 hPa | 0 mm | - | - | - |
| 1777567628 | 18.89° C | - | 1018.9 hPa | 0 mm | - | - | - |
| 1777567032 | 18.89° C | - | 1019 hPa | 0 mm | - | - | - |
| 1777563096 | 18.89° C | - | 1019 hPa | 0 mm | - | - | - |
| 1777555032 | 18.33° C | - | 1020.2 hPa | 0 mm | - | - | - |
| 1777550856 | 17.78° C | - | 1020.8 hPa | 0 mm | - | - | - |
| 1777548120 | 17.78° C | - | 1021.2 hPa | 0 mm | - | - | - |
* Rain latest hour (hover to see other rain measurements)
** Current wind speed in m/s (hover to see current wind gust speed)